Hourly Weather Roundup
Issued by NWS Central Illinois

Home | Current Version | Previous Version | Text Only | Print | Product List | Glossary On
Versions: 1 2 3 4 5 6 7 8 9 10 11 12 13 14 15 16 17 18 19 20 21 22 23 24 25 26 27 28 29 30 31 32 33 34 35 36 37 38 39 40 41 42 43 44 45 46 47 48 49 50
000
NZUS43 KILX 300110
HWRILX

Area Weather Roundup
National Weather Service Lincoln IL
800 PM CDT MON MAY 29 2017

NOTE:  "FAIR" indicates few or no clouds below 12,000 feet, with
       no sigificant weather and/or obstructions to visibility.


CITY           SKY/WX    TMP DP  RH WIND       PRES   REMARKS
Bloomington    CLEAR     71  41  33 NW12      29.92R
Champaign      PTCLDY    75  43  31 W15       29.90R
Danville       CLOUDY    71  50  48 NW8       29.87R
Decatur        PTCLDY    74  45  35 W12G21    29.91R
Effingham      CLOUDY    66  60  80 CALM      29.94S
Flora          RAIN      70  56  61 SW6       29.94R
Galesburg      CLEAR     71  40  33 W10G16    29.91R
Jacksonville   CLEAR     73  45  36 W7        29.93R
Lacon          MOCLDY    71  44  36 W6        29.89R
Lawrenceville  CLOUDY    78  50  37 SW7       29.91R
Litchfield     CLEAR     71  60  68 W7        29.93R
$$


CITY           SKY/WX    TMP DP  RH WIND       PRES   REMARKS
Lincoln        CLEAR     74  42  31 W3        29.92R
Macomb         PTCLDY    72  40  31 W12       29.94R
Mattoon        CLOUDY    70  55  59 SW3       29.90F
Mt Carmel AP   CLOUDY    76  50  39 W5        29.91R
Olney-Noble AP LGT RAIN  71  53  53 W9        29.94R
Paris AP       CLOUDY    74  51  43 W7        29.90R
Peoria         PTCLDY    71  42  35 W5        29.91R
Pontiac        CLEAR     72  44  36 W10       29.90S
Rantoul        PTCLDY    75  47  36 W12       29.89R
Robinson       CLOUDY    77  48  35 W14G20    29.91R
Springfield    CLEAR     76  47  35 W12       29.92R
Taylorville    CLEAR     74  48  39 NW8       29.92S
$$

...REGIONAL REPORTS...


CITY           SKY/WX    TMP DP  RH WIND       PRES   REMARKS
Chicago O`Hare PTCLDY    71  43  36 W12       29.85R
Kankakee       CLEAR     73  42  32 W10       29.89R
Moline         CLEAR     71  42  35 W12       29.88R
Mount Sterling CLEAR     72  44  36 W7        29.93R
Mount Vernon     N/A     63  61  93 CALM      29.94R
Pittsfield     CLEAR     75  46  35 W3        29.94R
Quincy         CLEAR     72  46  39 W7        29.93R
Rockford       MOCLDY    67  46  47 W6        29.87R
$$


CITY           SKY/WX    TMP DP  RH WIND       PRES   REMARKS
Burlington     CLEAR     72  40  31 W8        29.92R
Cedar Rapids   PTCLDY    66  45  46 NW14      29.90R
Des Moines     PTCLDY    69  41  36 NW10G22   29.94R
Kirksville     CLEAR     70  44  39 NW7       29.97R
Ottumwa        CLEAR     69  39  33 W9        29.93R
St Louis       PTCLDY    76  62  62 NW5       29.93R
$$


CITY           SKY/WX    TMP DP  RH WIND       PRES   REMARKS
Terre Haute    MOCLDY    75  50  41 SW7       29.88S
Evansville     PTCLDY    77  52  41 CALM      29.92R
Indianapolis   MOCLDY    73  50  44 SW8       29.88S
Lafayette      LGT RAIN  65  53  65 NW8G23    29.88R
Madison        MOCLDY    56  51  84 NW3       29.84F
Milwaukee      CLOUDY    62  51  67 W7        29.84R
$$






USA.gov is the U.S. government's official web portal to all federal, state and local government web resources and services.